| time (UTC) | temp C | wind direction | speed KPH | gust KPH | rain 1hr cm | rain 24hr cm | rain mn cm | humidity % | barometer mb |
| 20260508014120 | 7 | 270 | 1.6 | 3.2 | 0.00 | 1.09 | 0.00 | 98 | 1017.4 |
| 20260508013619 | 7 | 270 | 1.6 | 3.2 | 0.00 | 1.09 | 0.00 | 98 | 1017.3 |
| 20260508013120 | 8 | 315 | 1.6 | 4.8 | 0.00 | 1.09 | 0.00 | 98 | 1017.4 |
| 20260508012619 | 8 | 270 | 1.6 | 6.4 | 0.00 | 1.09 | 0.00 | 98 | 1017.3 |
| 20260508012119 | 8 | 270 | 1.6 | 4.8 | 0.00 | 1.09 | 0.00 | 98 | 1017.4 |
| 20260508011620 | 8 | 225 | 1.6 | 6.4 | 0.00 | 1.09 | 0.00 | 98 | 1017.3 |
| 20260508011120 | 8 | 225 | 0.0 | 0.0 | 0.00 | 1.09 | 0.00 | 97 | 1017.3 |
| 20260508010620 | 8 | 225 | 0.0 | 0.0 | 0.00 | 1.09 | 0.00 | 97 | 1017.3 |
| 20260508010120 | 8 | 225 | 0.0 | 0.0 | 0.00 | 0.00 | 0.00 | 97 | 1017.1 |
| 20260508005619 | 8 | 225 | 0.0 | 0.0 | 0.00 | 0.00 | 0.00 | 97 | 1017.1 |
| 20260508005119 | 8 | 225 | 0.0 | 0.0 | 0.00 | 0.00 | 0.00 | 97 | 1017.2 |
| 20260508004619 | 8 | 225 | 0.0 | 0.0 | 0.00 | 0.00 | 0.00 | 97 | 1017.3 |
| 20260508004120 | 8 | 45 | 0.0 | 3.2 | 0.00 | 0.00 | 0.00 | 97 | 1017.2 |
| 20260508003619 | 8 | 45 | 0.0 | 3.2 | 0.00 | 0.00 | 0.00 | 97 | 1017.2 |
| 20260508003120 | 8 | 158 | 0.0 | 1.6 | 0.00 | 0.00 | 0.00 | 97 | 1017.3 |
| 20260508002619 | 8 | 225 | 1.6 | 6.4 | 0.00 | 0.00 | 0.00 | 97 | 1017.3 |
| 20260508002119 | 8 | 225 | 1.6 | 6.4 | 0.00 | 0.00 | 0.00 | 97 | 1017.5 |
| 20260508001619 | 8 | 225 | 1.6 | 6.4 | 0.00 | 0.00 | 0.00 | 97 | 1017.5 |
| 20260508001119 | 8 | 270 | 1.6 | 6.4 | 0.00 | 0.00 | 0.00 | 97 | 1017.4 |
| 20260508000619 | 8 | 225 | 1.6 | 6.4 | 0.00 | 0.00 | 0.00 | 97 | 1017.5 |
| 20260508000119 | 8 | 270 | 1.6 | 6.4 | 0.00 | 0.00 | 0.00 | 97 | 1017.6 |
| 20260507235620 | 8 | 315 | 1.6 | 4.8 | 0.00 | 0.00 | 0.00 | 97 | 1017.6 |
| 20260507235120 | 8 | 270 | 1.6 | 6.4 | 0.00 | 0.00 | 0.00 | 97 | 1017.7 |
| 20260507234619 | 8 | 180 | 1.6 | 4.8 | 0.00 | 0.00 | 0.00 | 96 | 1017.7 |
| 20260507234120 | 8 | 270 | 1.6 | 3.2 | 0.00 | 0.00 | 0.00 | 96 | 1017.7 |
| 20260507233620 | 8 | 270 | 1.6 | 3.2 | 0.00 | 0.00 | 0.00 | 96 | 1017.8 |
| 20260507233119 | 8 | 270 | 0.0 | 3.2 | 0.00 | 0.00 | 0.00 | 96 | 1017.8 |
| 20260507232619 | 8 | 270 | 0.0 | 1.6 | 0.00 | 0.00 | 0.00 | 96 | 1017.8 |
| 20260507232119 | 9 | 270 | 0.0 | 3.2 | 0.00 | 0.00 | 0.00 | 96 | 1017.8 |
| 20260507231620 | 9 | 270 | 0.0 | 0.0 | 0.00 | 0.00 | 0.00 | 96 | 1017.9 |
| 20260507231120 | 9 | 360 | 1.6 | 3.2 | 0.00 | 0.00 | 0.00 | 96 | 1017.9 |
| 20260507230619 | 9 | 270 | 0.0 | 0.0 | 0.00 | 0.00 | 0.00 | 96 | 1018.1 |
| 20260507230119 | 9 | 360 | 1.6 | 3.2 | 0.00 | 0.00 | 0.00 | 96 | 1018.0 |
| 20260507225619 | 9 | 360 | 0.0 | 3.2 | 0.00 | 0.00 | 0.00 | 96 | 1018.0 |
| 20260507225120 | 9 | 360 | 0.0 | 3.2 | 0.00 | 0.00 | 0.00 | 96 | 1018.0 |
| 20260507224620 | 9 | 225 | 1.6 | 4.8 | 0.00 | 0.00 | 0.00 | 96 | 1018.1 |
| 20260507224119 | 10 | 315 | 1.6 | 6.4 | 0.00 | 0.00 | 0.00 | 96 | 1017.9 |
| 20260507223620 | 10 | 315 | 1.6 | 4.8 | 0.00 | 0.00 | 0.00 | 96 | 1018.0 |
| 20260507223120 | 10 | 225 | 1.6 | 6.4 | 0.00 | 0.00 | 0.00 | 96 | 1018.0 |
| 20260507222619 | 10 | 270 | 1.6 | 4.8 | 0.00 | 0.00 | 0.00 | 96 | 1018.1 |
| 20260507222121 | 10 | 225 | 1.6 | 3.2 | 0.00 | 0.00 | 0.00 | 96 | 1018.1 |
| 20260507221620 | 10 | 315 | 1.6 | 3.2 | 0.00 | 0.00 | 0.00 | 96 | 1018.0 |
| 20260507221120 | 10 | 158 | 1.6 | 6.4 | 0.00 | 0.00 | 0.00 | 96 | 1018.1 |
| 20260507220620 | 10 | 180 | 1.6 | 3.2 | 0.00 | 0.00 | 0.00 | 96 | 1018.2 |
| 20260507220119 | 10 | 225 | 1.6 | 4.8 | 0.00 | 0.00 | 0.00 | 96 | 1018.2 |
| 20260507215619 | 10 | 180 | 0.0 | 3.2 | 0.00 | 1.09 | 0.00 | 95 | 1018.2 |
| 20260507215120 | 10 | 270 | 0.0 | 1.6 | 0.00 | 1.09 | 0.00 | 95 | 1018.0 |
| 20260507214619 | 10 | 315 | 0.0 | 1.6 | 0.00 | 1.09 | 0.00 | 95 | 1018.1 |
| 20260507214120 | 10 | 315 | 1.6 | 3.2 | 0.00 | 1.09 | 0.00 | 96 | 1018.1 |
| 20260507213619 | 10 | 180 | 0.0 | 0.0 | 0.00 | 1.09 | 0.00 | 96 | 1018.0 |
| 20260507213119 | 10 | 225 | 0.0 | 0.0 | 0.00 | 1.09 | 0.00 | 96 | 1018.1 |
| 20260507212619 | 10 | 225 | 0.0 | 1.6 | 0.00 | 1.09 | 0.00 | 96 | 1018.0 |
| 20260507212119 | 10 | 225 | 0.0 | 1.6 | 0.00 | 1.09 | 0.00 | 96 | 1018.0 |
| 20260507211619 | 10 | 180 | 0.0 | 3.2 | 0.00 | 1.09 | 0.00 | 96 | 1018.1 |
| 20260507211119 | 10 | 158 | 0.0 | 1.6 | 0.00 | 1.09 | 0.00 | 96 | 1017.9 |
| 20260507210620 | 10 | 203 | 0.0 | 0.0 | 0.00 | 1.09 | 0.00 | 96 | 1017.9 |
| 20260507210120 | 10 | 360 | 1.6 | 3.2 | 0.00 | 0.00 | 0.00 | 96 | 1017.9 |
| 20260507205619 | 10 | 315 | 1.6 | 3.2 | 0.00 | 1.09 | 0.00 | 96 | 1017.8 |
| 20260507205119 | 10 | 315 | 1.6 | 3.2 | 0.00 | 1.09 | 0.00 | 96 | 1018.0 |
| 20260507204619 | 10 | 45 | 0.0 | 3.2 | 0.00 | 1.09 | 0.00 | 96 | 1018.0 |
| 20260507204119 | 10 | 360 | 1.6 | 3.2 | 0.00 | 1.09 | 0.00 | 96 | 1018.0 |
| 20260507203620 | 10 | 360 | 0.0 | 0.0 | 0.00 | 1.09 | 0.00 | 96 | 1017.9 |
| 20260507203119 | 11 | 270 | 0.0 | 1.6 | 0.00 | 1.09 | 0.00 | 96 | 1017.8 |
| 20260507202619 | 11 | 360 | 0.0 | 3.2 | 0.00 | 1.09 | 0.00 | 96 | 1017.8 |
| 20260507202119 | 11 | 270 | 1.6 | 3.2 | 0.00 | 1.09 | 0.00 | 96 | 1017.7 |
| 20260507201619 | 11 | 180 | 0.0 | 1.6 | 0.00 | 1.09 | 0.00 | 96 | 1017.7 |
| 20260507201119 | 11 | 180 | 0.0 | 3.2 | 0.00 | 1.09 | 0.00 | 96 | 1017.6 |
| 20260507200619 | 11 | 315 | 1.6 | 3.2 | 0.00 | 1.09 | 0.00 | 95 | 1017.7 |
| 20260507200119 | 11 | 225 | 0.0 | 3.2 | 0.00 | 0.00 | 0.00 | 95 | 1017.5 |
| 20260507195619 | 11 | 315 | 1.6 | 6.4 | 0.00 | 1.09 | 0.00 | 95 | 1017.6 |
| 20260507195119 | 11 | 180 | 1.6 | 3.2 | 0.00 | 1.09 | 0.00 | 95 | 1017.5 |
| 20260507194619 | 11 | 225 | 1.6 | 3.2 | 0.00 | 1.09 | 0.00 | 95 | 1017.5 |
| 20260507194119 | 11 | 360 | 1.6 | 3.2 | 0.00 | 1.09 | 0.00 | 95 | 1017.3 |
| 20260507193619 | 11 | 203 | 1.6 | 6.4 | 0.00 | 1.09 | 0.00 | 95 | 1017.3 |
| 20260507193118 | 11 | 270 | 0.0 | 3.2 | 0.00 | 1.09 | 0.00 | 95 | 1017.2 |
| 20260507192619 | 11 | 270 | 0.0 | 3.2 | 0.00 | 1.09 | 0.00 | 95 | 1017.0 |
| 20260507192119 | 11 | 180 | 1.6 | 3.2 | 0.03 | 1.09 | 0.00 | 95 | 1017.0 |
| 20260507191619 | 11 | 180 | 0.0 | 3.2 | 0.05 | 1.09 | 0.00 | 95 | 1016.9 |
| 20260507191119 | 11 | 225 | 1.6 | 3.2 | 0.10 | 1.09 | 0.00 | 95 | 1016.7 |
| 20260507190620 | 11 | 225 | 1.6 | 3.2 | 0.10 | 1.09 | 0.00 | 95 | 1016.5 |
| 20260507190119 | 11 | 270 | 1.6 | 6.4 | 0.00 | 0.00 | 0.00 | 94 | 1016.3 |
| 20260507185619 | 11 | 225 | 1.6 | 6.4 | 0.10 | 1.09 | 0.00 | 94 | 1016.3 |
| 20260507185119 | 11 | 180 | 0.0 | 3.2 | 0.10 | 1.09 | 0.00 | 94 | 1016.2 |
| 20260507184619 | 11 | 180 | 0.0 | 3.2 | 0.13 | 1.09 | 0.00 | 94 | 1016.0 |
| 20260507184119 | 11 | 225 | 1.6 | 3.2 | 0.18 | 1.09 | 0.00 | 94 | 1016.0 |
| 20260507183619 | 11 | 45 | 1.6 | 3.2 | 0.28 | 1.09 | 0.00 | 94 | 1015.9 |
| 20260507183119 | 11 | 45 | 1.6 | 4.8 | 0.38 | 1.09 | 0.00 | 93 | 1015.8 |
| 20260507182619 | 11 | 270 | 1.6 | 4.8 | 0.51 | 1.09 | 0.00 | 93 | 1015.9 |
| 20260507182119 | 11 | 315 | 3.2 | 6.4 | 0.69 | 1.04 | 0.00 | 93 | 1015.8 |
| 20260507181618 | 11 | 270 | 0.0 | 3.2 | 0.86 | 1.02 | 0.00 | 93 | 1015.9 |
| 20260507181119 | 11 | 360 | 1.6 | 6.4 | 0.86 | 0.99 | 0.00 | 92 | 1015.9 |
| 20260507180619 | 11 | 270 | 1.6 | 6.4 | 0.86 | 0.99 | 0.00 | 92 | 1015.8 |
| 20260507180119 | 11 | 315 | 1.6 | 6.4 | 0.00 | 0.00 | 0.00 | 91 | 1016.0 |
| 20260507175618 | 11 | 225 | 1.6 | 3.2 | 0.86 | 0.99 | 0.00 | 91 | 1015.9 |
| 20260507175118 | 11 | 225 | 1.6 | 3.2 | 0.86 | 0.99 | 0.00 | 90 | 1015.9 |
| 20260507174619 | 11 | 360 | 3.2 | 6.4 | 0.84 | 0.97 | 0.00 | 90 | 1015.6 |
| 20260507174119 | 11 | 270 | 1.6 | 6.4 | 0.79 | 0.89 | 0.00 | 87 | 1015.4 |
| 20260507173619 | 11 | 270 | 3.2 | 8.0 | 0.69 | 0.81 | 0.00 | 84 | 1015.5 |
| 20260507173119 | 11 | 360 | 3.2 | 8.0 | 0.56 | 0.69 | 0.00 | 82 | 1015.6 |
| 20260507172619 | 12 | 360 | 4.8 | 14.5 | 0.46 | 0.56 | 0.00 | 79 | 1015.6 |
| 20260507172119 | 13 | 360 | 4.8 | 16.1 | 0.23 | 0.36 | 0.00 | 71 | 1015.4 |
| 20260507171618 | 15 | 315 | 3.2 | 11.3 | 0.03 | 0.15 | 0.00 | 62 | 1014.6 |
| 20260507171119 | 15 | 338 | 9.7 | 29.0 | 0.00 | 0.13 | 0.00 | 60 | 1014.3 |
| 20260507170619 | 16 | 315 | 8.0 | 24.1 | 0.00 | 0.13 | 0.00 | 57 | 1014.6 |
| 20260507170119 | 16 | 270 | 4.8 | 12.9 | 0.00 | 0.00 | 0.00 | 56 | 1013.9 |
| 20260507165619 | 16 | 360 | 6.4 | 17.7 | 0.00 | 0.13 | 0.00 | 56 | 1013.2 |
| 20260507165118 | 16 | 360 | 11.3 | 27.4 | 0.00 | 0.13 | 0.00 | 55 | 1013.1 |
| 20260507164618 | 16 | 360 | 11.3 | 32.2 | 0.00 | 0.13 | 0.00 | 54 | 1013.2 |
| 20260507164119 | 17 | 360 | 9.7 | 27.4 | 0.00 | 0.13 | 0.00 | 54 | 1012.9 |
| 20260507163618 | 17 | 360 | 11.3 | 30.6 | 0.00 | 0.13 | 0.00 | 51 | 1012.6 |
| 20260507163118 | 18 | 45 | 4.8 | 14.5 | 0.00 | 0.13 | 0.00 | 50 | 1012.6 |
| 20260507162619 | 19 | 360 | 8.0 | 20.9 | 0.00 | 0.13 | 0.00 | 47 | 1012.5 |
| 20260507162118 | 21 | 338 | 6.4 | 17.7 | 0.00 | 0.13 | 0.00 | 46 | 1012.5 |
| 20260507161618 | 21 | 90 | 4.8 | 11.3 | 0.00 | 0.13 | 0.00 | 46 | 1012.4 |
| 20260507161119 | 21 | 360 | 1.6 | 6.4 | 0.00 | 0.13 | 0.00 | 47 | 1012.2 |
| 20260507160619 | 21 | 135 | 3.2 | 11.3 | 0.00 | 0.13 | 0.00 | 47 | 1012.1 |
| 20260507160118 | 21 | 135 | 1.6 | 6.4 | 0.00 | 0.00 | 0.00 | 48 | 1012.1 |
| 20260507155618 | 21 | 135 | 1.6 | 6.4 | 0.00 | 0.13 | 0.00 | 48 | 1012.0 |
| 20260507155119 | 21 | 180 | 4.8 | 12.9 | 0.00 | 0.13 | 0.00 | 45 | 1011.9 |
| 20260507154619 | 21 | 180 | 3.2 | 8.0 | 0.00 | 0.13 | 0.00 | 44 | 1011.8 |
| 20260507154119 | 21 | 135 | 4.8 | 14.5 | 0.00 | 0.13 | 0.00 | 44 | 1011.8 |
| 20260507153619 | 22 | 135 | 3.2 | 8.0 | 0.00 | 0.13 | 0.00 | 42 | 1011.9 |
| 20260507153119 | 22 | 135 | 3.2 | 12.9 | 0.00 | 0.13 | 0.00 | 39 | 1011.9 |
| 20260507152619 | 23 | 135 | 4.8 | 12.9 | 0.00 | 0.13 | 0.00 | 40 | 1011.9 |
| 20260507152119 | 22 | 135 | 6.4 | 20.9 | 0.00 | 0.13 | 0.00 | 40 | 1012.0 |
| 20260507151618 | 21 | 180 | 4.8 | 17.7 | 0.00 | 0.13 | 0.00 | 44 | 1012.0 |
| 20260507151119 | 21 | 180 | 4.8 | 12.9 | 0.00 | 0.13 | 0.00 | 43 | 1011.9 |
| 20260507150618 | 21 | 45 | 8.0 | 19.3 | 0.00 | 0.13 | 0.00 | 44 | 1011.9 |
| 20260507150118 | 20 | 180 | 4.8 | 16.1 | 0.00 | 0.00 | 0.00 | 44 | 1011.9 |
| 20260507145619 | 21 | 203 | 8.0 | 22.5 | 0.00 | 0.13 | 0.00 | 44 | 1011.9 |
| 20260507145118 | 21 | 135 | 4.8 | 17.7 | 0.00 | 0.13 | 0.00 | 44 | 1012.0 |
| 20260507144618 | 21 | 135 | 4.8 | 17.7 | 0.00 | 0.13 | 0.00 | 43 | 1011.9 |
| 20260507144119 | 21 | 135 | 6.4 | 17.7 | 0.00 | 0.13 | 0.00 | 44 | 1011.9 |
| 20260507143618 | 21 | 180 | 3.2 | 12.9 | 0.00 | 0.13 | 0.00 | 43 | 1012.1 |
| 20260507143118 | 21 | 23 | 3.2 | 8.0 | 0.00 | 0.13 | 0.00 | 43 | 1012.1 |
| 20260507142619 | 21 | 23 | 3.2 | 8.0 | 0.00 | 0.13 | 0.00 | 43 | 1012.1 |
| 20260507142118 | 22 | 225 | 3.2 | 9.7 | 0.00 | 0.13 | 0.00 | 42 | 1012.0 |
| 20260507141619 | 22 | 135 | 1.6 | 6.4 | 0.00 | 0.13 | 0.00 | 41 | 1012.0 |
| 20260507141118 | 22 | 90 | 3.2 | 11.3 | 0.00 | 0.13 | 0.00 | 42 | 1012.1 |
| 20260507140618 | 22 | 135 | 9.7 | 25.7 | 0.00 | 0.13 | 0.00 | 42 | 1012.0 |
| 20260507140119 | 21 | 135 | 6.4 | 19.3 | 0.00 | 0.00 | 0.00 | 44 | 1012.1 |
| 20260507135618 | 21 | 135 | 6.4 | 19.3 | 0.00 | 0.13 | 0.00 | 44 | 1012.1 |
| 20260507135118 | 21 | 180 | 4.8 | 16.1 | 0.00 | 0.13 | 0.00 | 44 | 1012.1 |
| 20260507134618 | 21 | 90 | 8.0 | 24.1 | 0.00 | 0.13 | 0.00 | 44 | 1012.2 |
| 20260507134118 | 21 | 135 | 3.2 | 11.3 | 0.00 | 0.13 | 0.00 | 42 | 1012.2 |
| 20260507133618 | 22 | 180 | 4.8 | 16.1 | 0.00 | 0.13 | 0.00 | 42 | 1012.2 |
| 20260507133118 | 22 | 158 | 4.8 | 14.5 | 0.00 | 0.13 | 0.00 | 41 | 1012.3 |
| 20260507132618 | 22 | 158 | 3.2 | 11.3 | 0.00 | 0.13 | 0.00 | 35 | 1012.3 |
| 20260507132118 | 23 | 113 | 4.8 | 14.5 | 0.00 | 0.13 | 0.00 | 34 | 1012.5 |
| 20260507131618 | 23 | 180 | 4.8 | 14.5 | 0.00 | 0.13 | 0.00 | 33 | 1012.4 |
| 20260507131118 | 23 | 225 | 4.8 | 14.5 | 0.00 | 0.13 | 0.00 | 32 | 1012.5 |
| 20260507130618 | 23 | 180 | 4.8 | 14.5 | 0.00 | 0.13 | 0.00 | 32 | 1012.6 |
| 20260507130119 | 24 | 135 | 4.8 | 16.1 | 0.00 | 0.00 | 0.00 | 32 | 1012.6 |
| 20260507125619 | 24 | 180 | 4.8 | 14.5 | 0.00 | 0.13 | 0.00 | 32 | 1012.5 |
| 20260507125118 | 23 | 90 | 3.2 | 8.0 | 0.00 | 0.13 | 0.00 | 32 | 1012.7 |
| 20260507124619 | 23 | 90 | 3.2 | 11.3 | 0.00 | 0.13 | 0.00 | 34 | 1012.6 |
| 20260507124118 | 22 | 45 | 6.4 | 17.7 | 0.00 | 0.13 | 0.00 | 35 | 1012.7 |
| 20260507123618 | 21 | 225 | 3.2 | 6.4 | 0.00 | 0.13 | 0.00 | 40 | 1012.8 |
| 20260507123118 | 21 | 113 | 4.8 | 12.9 | 0.00 | 0.13 | 0.00 | 37 | 1012.8 |
| 20260507122618 | 21 | 90 | 3.2 | 12.9 | 0.00 | 0.13 | 0.00 | 40 | 1012.9 |
| 20260507122118 | 21 | 180 | 3.2 | 11.3 | 0.00 | 0.13 | 0.00 | 41 | 1012.9 |
| 20260507121618 | 21 | 113 | 3.2 | 11.3 | 0.00 | 0.13 | 0.00 | 41 | 1013.1 |
| 20260507121118 | 21 | 225 | 6.4 | 14.5 | 0.00 | 0.13 | 0.00 | 40 | 1013.0 |
| 20260507120618 | 22 | 225 | 3.2 | 11.3 | 0.00 | 0.13 | 0.00 | 39 | 1013.0 |
| 20260507120118 | 23 | 135 | 3.2 | 9.7 | 0.00 | 0.00 | 0.00 | 35 | 1012.9 |
| 20260507115618 | 23 | 135 | 3.2 | 9.7 | 0.00 | 0.13 | 0.00 | 35 | 1012.9 |
| 20260507115118 | 23 | 135 | 1.6 | 8.0 | 0.00 | 0.13 | 0.00 | 35 | 1013.1 |
| 20260507114619 | 22 | 180 | 1.6 | 4.8 | 0.00 | 0.13 | 0.00 | 39 | 1013.2 |
| 20260507114118 | 22 | 180 | 4.8 | 11.3 | 0.00 | 0.13 | 0.00 | 37 | 1013.2 |
| 20260507113618 | 23 | 158 | 4.8 | 12.9 | 0.00 | 0.13 | 0.00 | 34 | 1013.1 |
| 20260507113118 | 24 | 158 | 3.2 | 11.3 | 0.00 | 0.13 | 0.00 | 33 | 1013.1 |
| 20260507112618 | 23 | 90 | 4.8 | 12.9 | 0.00 | 0.13 | 0.00 | 35 | 1013.2 |
| 20260507112118 | 23 | 45 | 4.8 | 12.9 | 0.00 | 0.13 | 0.00 | 35 | 1013.1 |
| 20260507111618 | 24 | 45 | 4.8 | 12.9 | 0.00 | 0.13 | 0.00 | 33 | 1013.2 |
| 20260507111118 | 24 | 158 | 3.2 | 12.9 | 0.00 | 0.13 | 0.00 | 33 | 1013.3 |
| 20260507110618 | 23 | 90 | 4.8 | 11.3 | 0.00 | 0.13 | 0.00 | 34 | 1013.2 |
| 20260507110118 | 23 | 90 | 4.8 | 11.3 | 0.00 | 0.00 | 0.00 | 34 | 1013.2 |
| 20260507105617 | 23 | 90 | 3.2 | 11.3 | 0.00 | 0.13 | 0.00 | 35 | 1013.5 |
| 20260507105118 | 22 | 45 | 3.2 | 8.0 | 0.00 | 0.13 | 0.00 | 36 | 1013.4 |
| 20260507104618 | 23 | 90 | 3.2 | 8.0 | 0.00 | 0.13 | 0.00 | 37 | 1013.4 |
| 20260507104118 | 23 | 135 | 3.2 | 8.0 | 0.00 | 0.13 | 0.00 | 35 | 1013.5 |
| 20260507103618 | 23 | 45 | 1.6 | 4.8 | 0.00 | 0.13 | 0.00 | 35 | 1013.6 |
| 20260507103118 | 23 | 135 | 1.6 | 6.4 | 0.00 | 0.13 | 0.00 | 37 | 1013.6 |
| 20260507102618 | 22 | 180 | 3.2 | 8.0 | 0.00 | 0.13 | 0.00 | 35 | 1013.6 |
| 20260507102117 | 22 | 270 | 3.2 | 11.3 | 0.00 | 0.13 | 0.00 | 37 | 1013.8 |
| 20260507101618 | 22 | 90 | 1.6 | 3.2 | 0.00 | 0.13 | 0.00 | 39 | 1013.6 |
| 20260507101118 | 22 | 90 | 3.2 | 8.0 | 0.00 | 0.13 | 0.00 | 42 | 1013.9 |
| 20260507100618 | 21 | 90 | 1.6 | 6.4 | 0.00 | 0.13 | 0.00 | 43 | 1013.8 |
| 20260507100118 | 21 | 90 | 1.6 | 6.4 | 0.00 | 0.00 | 0.00 | 43 | 1013.8 |
| 20260507095618 | 22 | 45 | 3.2 | 8.0 | 0.00 | 0.13 | 0.00 | 41 | 1013.9 |
| 20260507095118 | 22 | 90 | 1.6 | 6.4 | 0.00 | 0.13 | 0.00 | 40 | 1013.8 |
| 20260507094618 | 22 | 135 | 1.6 | 4.8 | 0.00 | 0.13 | 0.00 | 39 | 1014.0 |
| 20260507094118 | 22 | 180 | 4.8 | 11.3 | 0.00 | 0.13 | 0.00 | 42 | 1014.0 |
| 20260507093619 | 21 | 135 | 3.2 | 8.0 | 0.00 | 0.13 | 0.00 | 44 | 1013.9 |
| 20260507093119 | 21 | 45 | 1.6 | 6.4 | 0.00 | 0.13 | 0.00 | 44 | 1014.0 |
| 20260507092619 | 21 | 135 | 1.6 | 6.4 | 0.00 | 0.13 | 0.00 | 45 | 1014.0 |
| 20260507092117 | 21 | 45 | 3.2 | 11.3 | 0.00 | 0.13 | 0.00 | 45 | 1014.0 |
| 20260507091617 | 21 | 45 | 3.2 | 8.0 | 0.00 | 0.13 | 0.00 | 46 | 1014.0 |
| 20260507091118 | 21 | 45 | 3.2 | 8.0 | 0.00 | 0.13 | 0.00 | 45 | 1013.9 |
| 20260507090618 | 22 | 90 | 3.2 | 8.0 | 0.00 | 0.13 | 0.00 | 43 | 1013.9 |
| 20260507090118 | 21 | 135 | 1.6 | 3.2 | 0.00 | 0.00 | 0.00 | 47 | 1013.8 |
| 20260507085618 | 21 | 135 | 1.6 | 6.4 | 0.00 | 0.13 | 0.00 | 46 | 1013.8 |
| 20260507085118 | 21 | 315 | 1.6 | 3.2 | 0.00 | 0.13 | 0.00 | 47 | 1013.9 |
| 20260507084618 | 21 | 180 | 3.2 | 11.3 | 0.00 | 0.13 | 0.00 | 47 | 1013.9 |
| 20260507084119 | 20 | 135 | 3.2 | 6.4 | 0.00 | 0.13 | 0.00 | 50 | 1013.8 |
| 20260507083618 | 19 | 90 | 3.2 | 9.7 | 0.00 | 0.13 | 0.00 | 51 | 1013.7 |
| 20260507083117 | 18 | 135 | 0.0 | 1.6 | 0.00 | 0.13 | 0.00 | 52 | 1013.8 |
| 20260507082618 | 18 | 360 | 1.6 | 6.4 | 0.00 | 0.13 | 0.00 | 51 | 1013.6 |
| 20260507082118 | 18 | 135 | 0.0 | 3.2 | 0.00 | 0.13 | 0.00 | 51 | 1013.6 |
| 20260507081617 | 18 | 45 | 1.6 | 4.8 | 0.00 | 0.13 | 0.00 | 51 | 1013.6 |
| 20260507081117 | 18 | 135 | 1.6 | 3.2 | 0.00 | 0.13 | 0.00 | 51 | 1013.6 |
| 20260507080617 | 19 | 45 | 1.6 | 3.2 | 0.00 | 0.13 | 0.00 | 53 | 1013.7 |
| 20260507080118 | 18 | 45 | 0.0 | 3.2 | 0.00 | 0.00 | 0.00 | 54 | 1013.7 |
| 20260507075618 | 18 | 90 | 1.6 | 3.2 | 0.00 | 0.13 | 0.00 | 53 | 1013.6 |
| 20260507075118 | 18 | 158 | 0.0 | 3.2 | 0.00 | 0.13 | 0.00 | 57 | 1013.4 |
| 20260507074618 | 18 | 158 | 0.0 | 3.2 | 0.00 | 0.13 | 0.00 | 57 | 1013.4 |
| 20260507074117 | 18 | 45 | 0.0 | 1.6 | 0.13 | 0.13 | 0.00 | 57 | 1013.5 |
| 20260507073617 | 17 | 180 | 1.6 | 3.2 | 0.13 | 0.13 | 0.00 | 58 | 1013.5 |
| 20260507073117 | 17 | 180 | 1.6 | 3.2 | 0.13 | 0.13 | 0.00 | 59 | 1013.4 |
| 20260507072617 | 17 | 90 | 0.0 | 3.2 | 0.13 | 0.13 | 0.00 | 59 | 1013.3 |
| 20260507072117 | 17 | 45 | 1.6 | 4.8 | 0.13 | 0.13 | 0.00 | 60 | 1013.3 |
| 20260507071617 | 17 | 90 | 1.6 | 4.8 | 0.13 | 0.13 | 0.00 | 61 | 1013.3 |
| 20260507071118 | 17 | 180 | 0.0 | 0.0 | 0.13 | 0.13 | 0.00 | 69 | 1013.3 |
| 20260507070617 | 16 | 225 | 0.0 | 0.0 | 0.13 | 0.13 | 0.00 | 68 | 1013.3 |
| 20260507070117 | 16 | 315 | 0.0 | 3.2 | 0.00 | 0.00 | 0.00 | 70 | 1013.1 |
| 20260507065617 | 16 | 45 | 0.0 | 1.6 | 0.13 | 0.13 | 0.00 | 70 | 1013.1 |
| 20260507065117 | 16 | 45 | 1.6 | 3.2 | 0.13 | 0.13 | 0.00 | 70 | 1012.8 |
| 20260507064617 | 15 | 270 | 0.0 | 3.2 | 0.13 | 0.13 | 0.00 | 70 | 1013.0 |
| 20260507064118 | 15 | 315 | 1.6 | 3.2 | 0.00 | 0.00 | 0.00 | 71 | 1013.0 |
| 20260507063618 | 15 | 315 | 0.0 | 3.2 | 0.00 | 0.00 | 0.00 | 72 | 1013.1 |
| 20260507063117 | 15 | 360 | 1.6 | 4.8 | 0.00 | 0.00 | 0.00 | 73 | 1013.0 |
| 20260507062617 | 15 | 270 | 0.0 | 0.0 | 0.00 | 0.00 | 0.00 | 74 | 1012.9 |
| 20260507062117 | 15 | 270 | 0.0 | 3.2 | 0.00 | 0.00 | 0.00 | 74 | 1012.9 |
| 20260507061617 | 14 | 225 | 0.0 | 3.2 | 0.00 | 0.00 | 0.00 | 75 | 1012.8 |
| 20260507061118 | 14 | 225 | 0.0 | 3.2 | 0.00 | 0.00 | 0.00 | 76 | 1012.9 |
| 20260507060617 | 14 | 315 | 0.0 | 0.0 | 0.00 | 0.00 | 0.00 | 76 | 1012.9 |
| 20260507060117 | 14 | 315 | 0.0 | 0.0 | 0.00 | 0.00 | 0.00 | 76 | 1012.7 |
| 20260507055617 | 13 | 315 | 1.6 | 3.2 | 0.00 | 0.00 | 0.00 | 76 | 1012.7 |
| 20260507055117 | 13 | 360 | 1.6 | 3.2 | 0.00 | 0.00 | 0.00 | 75 | 1012.7 |
| 20260507054617 | 13 | 225 | 1.6 | 3.2 | 0.00 | 0.00 | 0.00 | 75 | 1012.8 |
| 20260507054117 | 13 | 225 | 0.0 | 3.2 | 0.00 | 0.00 | 0.00 | 76 | 1012.6 |
| 20260507053617 | 13 | 225 | 0.0 | 0.0 | 0.00 | 0.00 | 0.00 | 76 | 1012.6 |
| 20260507053117 | 13 | 180 | 0.0 | 1.6 | 0.00 | 0.00 | 0.00 | 76 | 1012.4 |
| 20260507052617 | 13 | 180 | 0.0 | 0.0 | 0.00 | 0.00 | 0.00 | 76 | 1012.5 |
| 20260507052117 | 13 | 338 | 1.6 | 3.2 | 0.00 | 0.00 | 0.00 | 76 | 1012.5 |
| 20260507051617 | 13 | 360 | 1.6 | 4.8 | 0.00 | 0.00 | 0.00 | 76 | 1012.4 |
| 20260507051117 | 13 | 180 | 0.0 | 3.2 | 0.00 | 0.00 | 0.00 | 76 | 1012.3 |
| 20260507050617 | 13 | 225 | 0.0 | 1.6 | 0.00 | 0.00 | 0.00 | 76 | 1012.3 |
| 20260507050117 | 12 | 180 | 0.0 | 1.6 | 0.00 | 0.00 | 0.00 | 76 | 1012.3 |
| 20260507045617 | 12 | 270 | 1.6 | 3.2 | 0.00 | 0.00 | 0.00 | 76 | 1012.3 |
| 20260507045117 | 12 | 225 | 0.0 | 3.2 | 0.00 | 0.00 | 0.00 | 76 | 1012.2 |
| 20260507044617 | 12 | 315 | 1.6 | 6.4 | 0.00 | 0.00 | 0.00 | 75 | 1012.0 |
| 20260507044117 | 12 | 315 | 1.6 | 6.4 | 0.00 | 0.00 | 0.00 | 75 | 1012.0 |
| 20260507043617 | 12 | 45 | 0.0 | 0.0 | 0.00 | 0.00 | 0.00 | 74 | 1012.1 |
| 20260507043117 | 12 | 45 | 0.0 | 0.0 | 0.00 | 0.00 | 0.00 | 74 | 1012.0 |
| 20260507042617 | 12 | 45 | 0.0 | 3.2 | 0.00 | 0.00 | 0.00 | 74 | 1011.9 |
| 20260507042117 | 13 | 270 | 1.6 | 3.2 | 0.00 | 0.00 | 0.00 | 74 | 1011.9 |
| 20260507041619 | 13 | 270 | 1.6 | 4.8 | 0.00 | 0.00 | 0.00 | 74 | 1011.9 |
| 20260507041116 | 13 | 270 | 1.6 | 3.2 | 0.00 | 0.00 | 0.00 | 74 | 1011.9 |
| 20260507040618 | 13 | 270 | 1.6 | 3.2 | 0.00 | 0.00 | 0.00 | 74 | 1011.9 |
| 20260507040116 | 13 | 225 | 1.6 | 3.2 | 0.00 | 0.00 | 0.00 | 73 | 1011.6 |
| 20260507035617 | 13 | 225 | 1.6 | 3.2 | 0.00 | 0.00 | 0.00 | 73 | 1011.6 |
| 20260507035117 | 13 | 225 | 0.0 | 3.2 | 0.00 | 0.00 | 0.00 | 73 | 1011.8 |
| 20260507034617 | 13 | 225 | 1.6 | 3.2 | 0.00 | 0.00 | 0.00 | 73 | 1011.7 |
| 20260507034117 | 13 | 180 | 0.0 | 3.2 | 0.00 | 0.00 | 0.00 | 73 | 1011.8 |
| 20260507033616 | 13 | 90 | 0.0 | 3.2 | 0.00 | 0.00 | 0.00 | 73 | 1011.7 |
| 20260507033116 | 13 | 270 | 1.6 | 4.8 | 0.00 | 0.00 | 0.00 | 73 | 1011.7 |
| 20260507032616 | 13 | 315 | 1.6 | 3.2 | 0.00 | 0.00 | 0.00 | 72 | 1011.5 |
| 20260507032117 | 13 | 315 | 1.6 | 3.2 | 0.00 | 0.00 | 0.00 | 72 | 1011.5 |
| 20260507031617 | 13 | 315 | 0.0 | 3.2 | 0.00 | 0.00 | 0.00 | 72 | 1011.4 |
| 20260507031116 | 13 | 225 | 1.6 | 3.2 | 0.00 | 0.00 | 0.00 | 72 | 1011.6 |
| 20260507030617 | 13 | 225 | 1.6 | 3.2 | 0.00 | 0.00 | 0.00 | 72 | 1011.7 |
| 20260507030116 | 13 | 225 | 1.6 | 3.2 | 0.00 | 0.00 | 0.00 | 71 | 1011.4 |
| 20260507025616 | 13 | 225 | 0.0 | 3.2 | 0.00 | 0.00 | 0.00 | 71 | 1011.4 |
| 20260507025117 | 14 | 360 | 1.6 | 3.2 | 0.00 | 0.00 | 0.00 | 70 | 1011.5 |
| 20260507024617 | 14 | 315 | 0.0 | 1.6 | 0.00 | 0.00 | 0.00 | 70 | 1011.5 |
| 20260507024117 | 14 | 315 | 1.6 | 3.2 | 0.00 | 0.00 | 0.00 | 70 | 1011.5 |
| 20260507023617 | 14 | 360 | 1.6 | 3.2 | 0.00 | 0.00 | 0.00 | 70 | 1011.4 |
| 20260507023117 | 14 | 225 | 1.6 | 4.8 | 0.00 | 0.00 | 0.00 | 70 | 1011.4 |
| 20260507022616 | 14 | 225 | 1.6 | 4.8 | 0.00 | 0.00 | 0.00 | 70 | 1011.4 |
| 20260507022117 | 14 | 180 | 1.6 | 3.2 | 0.00 | 0.00 | 0.00 | 71 | 1011.4 |
| 20260507021617 | 14 | 270 | 0.0 | 1.6 | 0.00 | 0.00 | 0.00 | 71 | 1011.5 |
| 20260507021116 | 14 | 315 | 1.6 | 3.2 | 0.00 | 0.00 | 0.00 | 70 | 1011.5 |
| 20260507020617 | 14 | 360 | 1.6 | 3.2 | 0.00 | 0.00 | 0.00 | 70 | 1011.4 |
| 20260507020116 | 15 | 270 | 1.6 | 4.8 | 0.00 | 0.00 | 0.00 | 70 | 1011.5 |
| 20260507015616 | 15 | 315 | 1.6 | 3.2 | 0.00 | 0.00 | 0.00 | 70 | 1011.4 |
| 20260507015116 | 15 | 225 | 1.6 | 3.2 | 0.00 | 0.00 | 0.00 | 70 | 1011.4 |
| 20260507014616 | 15 | 135 | 1.6 | 3.2 | 0.00 | 0.00 | 0.00 | 70 | 1011.4 |